Location: Mercogliano
(40.9167°N, 14.7333°E)
Time: 14:55:13
(UTC+00:00)

ATLAS 2AS CENTAUR R/B - Pass Details

Date: 18 September 2020
Orbit: 939 x 1273 km, 63.7° (Epoch: 27 October)

Event Time Altitude Azimuth Distance (km) Brightness Sun altitude
Rises 21:01:18 0° 235° (SW) 4,192 5.8 -40.4°
Reaches altitude 10° 21:04:13 10° 241° (WSW) 3,246 5.3 -40.7°
Enters shadow 21:04:49 12° 242° (WSW) 3,063 5.1 -40.8°
Exits shadow 21:11:57 47° 316° (NW) 1,634 3.8 -41.6°
Drops below altitude 10° 21:19:22 10° 26° (NNE) 3,230 5.4 -42.4°
Sets 21:22:17 0° 33° (NNE) 4,169 6.0 -42.7°
